Regional Weather Roundup
Issued by NWS

Home | Current Version | Previous Version | Text Only | Print | Product List | Glossary Off
Versions: 1 2 3 4 5 6 7 8 9 10 11 12 13 14 15 16 17 18 19 20 21 22 23 24 25 26 27 28 29 30 31 32 33 34 35 36 37 38 39 40 41 42 43 44 45 46 47 48 49 50

000
ASUS43 KMPX 281210
RWRMN
WEATHER ROUNDUP FOR MINNESOTA
NATIONAL WEATHER SERVICE TWIN CITIES/CHANHASSEN MN
700 AM CDT SUN MAY 28 2017


NOTE: "FAIR" INDICATES FEW OR NO CLOUDS BELOW 12,000 FEET WITH NO
SIGNIFICANT WEATHER AND/OR OBSTRUCTIONS TO VISIBILITY. N/A MEANS
CURRENT SKY AND/OR WEATHER CONDITIONS ARE NOT AVAILABLE.

MNZ060>063-068>070-281300-
   Twin Cities Metro

CITY           SKY/WX    TMP DP  RH WIND       PRES   REMARKS
TWIN CITIES    MOSUNNY   59  49  69 W9        29.72F
6HR MIN TEMP:  58; 6HR MAX TEMP:  65;

ST PAUL        MOSUNNY   58  51  78 W7        29.72F
CRYSTAL        MOSUNNY   58  47  66 W10       29.71F
BLAINE         MOSUNNY   59  50  72 W7        29.71F
LAKEVILLE      SUNNY     57  50  77 W7G16     29.73S
EDEN PRAIRIE   SUNNY     57  50  77 W6        29.73R
6HR MIN TEMP:  54; 6HR MAX TEMP:  61;

SOUTH ST PAUL  MOSUNNY   58  49  71 W10       29.72S
LAKE ELMO      FAIR      59  52  77 SW7       29.72F
$$
MNZ001>005-007-008-013>017-022>024-027-028-281300-
   Northwest Minnesota

CITY           SKY/WX    TMP DP  RH WIND       PRES   REMARKS
BEMIDJI        MOSUNNY   49  47  95 W9        29.68S
HALLOCK        LGT RAIN  52  48  87 NW8       29.72S
ROSEAU         SUNNY     52  46  82 NW6       29.68S
WARROAD        SUNNY     52  48  87 W7        29.68R
THIEF RVR FALL SUNNY     50  47  89 NW14      29.73R
CROOKSTON      PTSUNNY   50  48  93 NW8       29.74R
FOSSTON        CLOUDY    48  46  93 W9        29.72R
DETROIT LAKES  MOSUNNY   50  46  87 W9        29.75R
MOORHEAD       SUNNY     52  46  82 W8        29.76S
PARK RAPIDS    LGT RAIN  50  45  83 W9        29.70F
MAHNOMEN       FAIR      50  48  92 W14       29.72S
$$
MNZ006-009>011-018-025>026-281300-
   North Central Minnesota

CITY           SKY/WX    TMP DP  RH WIND       PRES   REMARKS
BAUDETTE       CLOUDY    51  47  86 NW8       29.64
FLAG ISLAND    SUNNY     52  48  87 NW15      29.64S
INTL FALLS     CLOUDY    53  47  79 SE6       29.63S
6HR MIN TEMP:  49; 6HR MAX TEMP:  56;

WASKISH        CLOUDY    52  48  87 W9        29.66R
BIG FORK       CLOUDY    54  48  82 SW5       29.66S
LONGVILLE      CLOUDY    50  46  87 W6        29.69S
GRAND RAPIDS   MOSUNNY   52  49  89 NW7       29.69S
CRANE LAKE     CLOUDY    50  48  93 S3        29.67R
ORR            CLOUDY    50  46  87 CALM      29.61F
COOK           CLOUDY    52  48  87 CALM      29.65S
WALKER         CLOUDY    48  47  94 W8        29.68F
$$
MNZ012-019>021-037-281300-
   Northeast Minnesota

CITY           SKY/WX    TMP DP  RH WIND       PRES   REMARKS
DULUTH         CLOUDY    54  50  86 CALM      29.65F
6HR MIN TEMP:  52; 6HR MAX TEMP:  61; 6HR PCP:  0.01;

ELY            MOSUNNY   52  46  82 SW3       29.66S
HIBBING        CLOUDY    47  47 100 SW5       29.65S
EVELETH        CLOUDY    53  49  88 S7        29.66R
DULUTH HARBOR  LGT RAIN  55  52  88 SW3       29.66F
TWO HARBORS    CLOUDY    54  48  82 W6        29.66R
SILVER BAY     CLOUDY    50  48  93 CALM      29.64F
GRAND MARAIS     N/A     51  43  74 NW3       29.67F
G MARAIS ARPRT MOSUNNY   50  39  66 SE5       29.68F
$$
MNZ029>031-032-039>041-046>048-054>057-064-281300-
   West Central Minnesota

CITY           SKY/WX    TMP DP  RH WIND       PRES   REMARKS
FERGUS FALLS   SUNNY     48  48 100 CALM      29.76F
WHEATON        SUNNY     52  46  82 W7        29.80F
MORRIS         SUNNY     52  48  87 W9        29.77S
ALEXANDRIA     PTSUNNY   50  46  86 W13       29.77R
ELBOW LAKE     FAIR      50  47  88 NW8       29.78R
WADENA         PTSUNNY   48  46  93 W9        29.72F
GLENWOOD       MOSUNNY   52  46  82 W12       29.77S
APPLETON       SUNNY     55  46  71 NW8       29.79S
BENSON         SUNNY     54  46  76 NW10      29.80S
ORTONVILLE     SUNNY     52  46  82 W7        29.79F
MADISON        SUNNY     55  48  76 W6        29.80S
WILLMAR        FAIR      54  46  76 W8        29.79S
$$
MNZ033>034-036-042>043-049>051-058-059-281300-
   Central Minnesota

CITY           SKY/WX    TMP DP  RH WIND       PRES   REMARKS
ST CLOUD       SUNNY     55  48  77 W8        29.73R
6HR MIN TEMP:  52; 6HR MAX TEMP:  60; 6HR PCP: TRACE;

SAUK CENTRE    FAIR      50  46  84 W12       29.75S
PAYNESVILLE    SUNNY     53  45  76 W13G22    29.76R
AITKIN         CLOUDY    52  46  82 SW5       29.68S
PINE RIVER     CLOUDY    50  46  87 W5        29.74S
BRAINERD       CLOUDY    51  46  83 NW8       29.71S
STAPLES        CLOUDY    48  46  93 W10       29.73R
LONG PRAIRIE   FAIR      50  45  81 W10G16    29.75R
LITTLE FALLS   MOSUNNY   52  45  76 W10       29.73S
LITCHFIELD     MOSUNNY   55  48  76 W10       29.77R
BUFFALO        SUNNY     56  48  74 W8        29.76R
MAPLE LAKE     MOSUNNY   56  49  77 W6        29.75S
HUTCHINSON     CLOUDY    55  50  81 W10       29.79R
$$
MNZ037-044-045-052-053-281300-
   East Central Minnesota

CITY           SKY/WX    TMP DP  RH WIND       PRES   REMARKS
PRINCETON      SUNNY     55  48  76 W6        29.72R
MORA           CLOUDY    54  46  76 W6        29.72R
CAMBRIDGE      CLOUDY    57  46  67 W5        29.70S
RUSH CITY      CLOUDY    55  49  78 SW3       29.70S
MOOSE LAKE     LGT RAIN  50  46  87 CALM      29.66R
HINCKLEY       CLOUDY    54  50  87 W8        29.69S
CLOQUET        CLOUDY    52  48  87 CALM      29.65F
MCGREGOR       CLOUDY    54  46  76 W8        29.68R
$$
MNZ071>073-080-081-089-090-097-098-281300-
   Southwest Minnesota

CITY           SKY/WX    TMP DP  RH WIND       PRES   REMARKS
MONTEVIDEO     SUNNY     55  46  71 N8        29.80S
CANBY          SUNNY     55  47  74 CALM      29.82S
MARSHALL       SUNNY     54  47  77 W8        29.82R
REDWOOD FALLS  SUNNY     54  46  74 W8        29.80R
OLIVIA         MOSUNNY   54  46  76 NW9       29.79R
PIPESTONE      SUNNY     52  43  71 NW3       29.84R
WINDOM         SUNNY     55  46  71 NW7       29.83R
WORTHINGTON    SUNNY     54  47  77 NW9       29.85R
JACKSON        SUNNY     54  46  76 NW15      29.83S
TRACY          SUNNY     55  48  75 W5        29.83R
SLAYTON        SUNNY     51  47  86 W6        29.85R
$$
MNZ065>067-074>077-082>085-091>093-281300-
   South Central Minnesota

CITY           SKY/WX    TMP DP  RH WIND       PRES   REMARKS
MANKATO        MOSUNNY   57  50  77 W13       29.78R
NEW ULM        SUNNY     55  46  71 W14       29.79R
ST JAMES       SUNNY     57  48  72 W15G21    29.81S
FAIRMONT       SUNNY     57  49  74 NW16      29.81R
GLENCOE        MOSUNNY   57  52  83 W8        29.76R
FARIBAULT      SUNNY     57  52  82 W10       29.76S
OWATONNA       SUNNY     57  50  77 W14       29.76S
WASECA         MOSUNNY   55  50  82 W12       29.79R
ALBERT LEA     SUNNY     61  52  72 W7        29.78R
$$
MNZ078>079-086>088-094>096-281300-
   Southeast Minnesota

CITY           SKY/WX    TMP DP  RH WIND       PRES   REMARKS
ROCHESTER      SUNNY     55  51  86 SW9       29.78S
6HR MIN TEMP:  51; 6HR MAX TEMP:  57;

RED WING       SUNNY     57  50  77 W3        29.72F
STANTON        SUNNY     59  51  74 W9        29.73S
DODGE CENTER   SUNNY     55  50  82 SW9       29.77R
WINONA         SUNNY     55  54  94 CALM      29.76S
AUSTIN         SUNNY     54  50  87 SW3       29.78R
PRESTON        SUNNY     56  49  77 SW7       29.78S
$$
ABBREVIATIONS USED IN REMARKS
   TC - TEMPERATURES IN CELSIUS
  WCI - WIND CHILL INDEX
   HX - HEAT INDEX
  VSB - VISIBILITY
$$



USA.gov is the U.S. government's official web portal to all federal, state and local government web resources and services.